Wind_Speed
7 7 8 7 8 7 4 3 2 4 6 9 10 8 7 7 7 7 5 5 7 8 5 8 10 12 14 13 14 14 16 12 10 15 18 17 25 25 29 28 28 30 31
7 6 6 7 6 2 1 1 5 6 7 8 8 7 5 5 5 7 6 6 9 9 5 7 10 10 10 8 10 12 13 8 8 19 28 34 35 27 29 33 27 25 26
6 4 3 3 2 2 4 2 5 7 8 8 8 6 5 5 7 7 6 9 10 10 8 9 10 7 5 6 9 16 16 18 16 15 36 30 31 25 32 30 24 25 24
5 4 3 2 2 4 5 6 5 8 8 8 7 6 6 7 8 8 8 9 8 10 9 9 8 5 8 10 20 21 19 19 14 21 26 32 23 29 32 30 22 23 17
6 6 5 5 5 7 6 6 7 9 9 9 7 6 7 10 11 11 8 7 9 8 9 8 8 9 9 13 15 16 16 20 20 28 37 30 31 39 32 29 23 20 12
7 7 5 8 7 7 6 4 6 7 7 8 8 9 9 10 10 10 9 9 8 7 7 5 7 9 9 12 13 14 16 17 30 27 28 36 33 31 27 27 21 14 13
8 7 7 11 10 6 5 2 7 8 8 8 8 9 10 11 10 11 11 10 9 8 8 7 8 9 12 10 12 20 12 20 19 25 27 35 28 22 23 24 17 14 14
9 8 9 10 10 6 6 8 5 6 6 5 5 11 10 11 12 11 8 8 9 9 9 13 11 11 11 11 13 19 22 20 28 22 31 26 22 21 20 18 18 17 14
11 9 11 12 10 9 8 5 7 7 5 3 10 14 14 13 11 11 11 11 11 11 12 13 12 12 12 18 17 20 17 23 28 26 27 27 26 22 22 21 19 14 9
13 10 10 12 11 10 10 8 7 10 9 13 11 7 11 11 10 12 12 14 16 13 15 16 12 10 9 21 16 21 24 24 26 29 30 28 27 26 22 19 13 10 7
15 12 11 11 11 11 10 9 10 8 9 13 15 16 15 11 8 12 13 15 18 19 16 15 12 13 20 21 20 24 21 24 26 27 29 28 26 22 17 13 10 10 6
14 15 13 11 10 10 11 10 10 9 9 8 10 9 9 13 15 15 20 19 20 18 17 16 15 21 22 22 23 22 22 22 26 29 27 25 22 18 14 10 7 5 6
12 14 15 13 11 10 10 10 10 10 10 10 10 10 10 13 15 15 19 21 21 15 17 20 21 22 20 21 24 25 26 26 26 24 23 21 18 14 11 8 6 7 9
12 12 13 14 14 13 12 11 11 10 10 11 11 11 12 12 13 15 18 21 22 22 21 20 20 18 18 22 24 26 28 27 24 23 21 17 15 12 11 10 9 10 12
14 13 13 14 15 15 13 12 11 12 12 11 12 12 12 12 14 14 13 14 16 16 15 15 15 15 17 21 24 26 26 24 23 21 19 16 15 14 12 12 12 14 15
15 13 14 14 15 16 17 16 14 14 13 14 14 15 15 15 14 14 15 15 15 14 14 14 14 14 16 19 21 23 24 23 21 19 18 17 17 16 16 15 16 17 18
16 15 13 15 16 16 17 18 17 16 15 14 14 14 13 13 13 14 14 15 16 16 16 15 14 15 17 18 19 21 22 23 22 21 21 20 19 19 18 19 19 21 23
12 15 17 14 15 17 17 17 18 17 15 14 14 14 13 14 14 15 15 14 14 14 14 15 15 16 17 18 19 21 24 25 24 24 24 23 22 22 21 23 24 26 28
16 17 19 19 17 16 19 19 19 18 18 18 18 18 17 16 16 16 16 15 15 15 15 15 15 17 18 19 20 21 24 25 25 26 26 26 25 25 25 27 28 29 32
19 17 18 19 21 20 19 22 21 20 20 21 20 19 20 19 19 17 16 16 16 16 17 18 19 19 19 20 22 25 26 28 27 29 29 29 29 30 31 31 33 33 35
23 23 21 20 18 16 17 18 21 22 22 22 21 23 22 20 20 19 19 18 19 19 20 21 22 22 23 24 24 25 27 28 29 30 32 32 33 33 33 36 37 38 40
26 26 26 24 22 20 18 17 16 18 21 23 23 24 23 23 25 23 22 22 21 21 23 24 25 26 26 27 28 29 30 31 31 31 32 34 35 35 36 38 40 42 41
32 29 28 29 28 26 25 24 22 20 19 21 23 26 27 26 26 25 23 22 23 23 23 25 26 27 28 29 30 30 32 33 33 33 34 36 38 37 38 41 40 40 45
40 35 31 31 31 31 32 30 28 26 26 26 25 26 29 28 29 27 26 25 25 25 26 28 28 29 30 31 32 32 33 33 33 33 33 35 38 39 39 41 39 41 45
47 43 39 35 34 35 34 34 34 33 31 31 32 31 30 30 28 29 28 28 27 26 26 26 28 28 29 31 33 33 33 32 32 34 34 33 35 37 38 42 45 48 46
48 49 43 41 41 38 36 35 37 37 36 36 34 35 35 36 36 34 34 34 33 31 31 32 30 26 27 29 28 28 28 27 29 32 34 36 38 40 43 46 47 47 48
Wind_Direction
279 287 285 278 277 300 298 299 198 148 147 150 139 148 158 158 151 147 135 142 171 179 131 133 145 158 161 171 174 184 207 209 178 160 189 159 179 167 144 157 167 153 158
270 280 269 273 301 290 193 198 161 151 161 159 154 150 151 159 162 149 155 160 161 156 158 165 160 161 164 176 181 182 190 179 149 168 184 158 146 150 178 155 166 166 174
258 251 241 297 58 131 144 166 158 155 167 169 161 155 153 148 150 150 149 152 157 155 141 132 147 154 180 181 173 175 170 162 147 146 155 169 164 171 159 157 157 160 151
229 201 187 146 131 98 130 152 164 161 161 167 168 151 145 138 146 141 133 139 150 160 140 135 134 145 140 114 140 150 159 164 161 163 164 159 162 160 168 145 152 161 134
196 177 168 157 123 93 105 125 147 159 167 170 167 155 133 140 144 146 145 145 139 153 156 166 150 142 119 118 137 154 168 163 160 167 160 167 153 163 165 159 145 137 151
177 172 154 170 139 112 81 103 137 152 165 166 166 164 151 145 148 147 156 146 148 145 153 149 154 155 134 141 131 147 152 167 166 164 167 166 166 168 175 163 146 157 167
172 156 149 161 148 123 74 120 153 143 144 148 158 162 161 159 160 143 125 131 148 147 142 144 146 136 143 149 142 152 149 155 175 164 170 170 164 162 161 147 159 162 155
166 148 139 141 151 151 110 74 135 164 169 217 227 186 173 171 173 181 168 150 138 137 126 149 146 144 138 139 136 146 145 163 160 152 162 152 161 150 150 158 157 148 149
164 150 140 138 138 138 126 115 97 114 72 49 191 191 188 180 178 186 184 174 170 150 141 150 145 135 125 147 133 153 146 138 153 153 157 142 140 149 148 145 147 147 148
167 158 151 148 146 138 129 130 119 110 83 79 96 149 178 194 193 198 199 192 182 176 164 151 145 156 142 145 126 135 139 136 144 149 147 145 143 144 148 149 152 155 158
174 172 164 158 154 148 141 138 144 138 99 91 107 103 108 114 126 174 167 167 171 169 163 164 153 131 146 143 132 136 133 136 135 138 140 142 145 149 151 157 169 177 200
176 182 182 168 160 154 149 149 145 141 131 131 116 107 99 101 107 134 149 140 145 160 164 147 147 139 137 136 137 138 138 141 144 145 147 150 154 158 161 167 182 214 253
182 179 189 182 174 167 157 152 150 150 141 132 128 122 116 115 121 109 138 137 138 137 145 142 140 146 148 148 150 149 148 151 153 155 157 161 166 170 179 195 222 250 269
189 184 183 190 186 182 178 168 161 157 154 148 143 139 135 130 130 122 119 137 143 146 148 146 147 155 159 158 159 158 159 163 167 170 173 177 184 195 205 223 247 275 293
196 194 192 192 189 188 187 186 181 173 166 165 161 153 146 142 137 136 138 142 146 153 158 160 162 165 166 169 170 173 176 176 180 185 189 196 207 217 231 249 266 281 290
205 202 201 201 201 193 192 193 194 192 190 183 176 171 169 162 158 156 156 157 161 166 171 176 179 179 180 182 185 186 187 191 195 201 209 219 230 236 244 256 269 279 286
217 211 208 210 208 211 202 197 200 202 203 202 198 195 189 180 178 176 176 176 178 180 182 187 190 191 191 193 196 200 203 206 209 213 222 233 241 247 254 263 271 278 282
231 222 217 214 216 217 214 211 206 206 206 209 212 214 211 206 203 198 197 196 194 194 196 199 203 205 207 208 210 211 213 216 217 222 230 240 247 254 259 267 273 279 284
235 223 220 215 210 214 218 218 215 213 209 207 210 214 216 214 216 218 218 213 210 208 210 214 218 223 224 225 226 226 226 228 228 233 241 248 253 259 263 269 275 280 285
233 228 222 220 220 216 216 219 220 218 216 216 215 216 221 220 221 223 224 224 224 224 224 225 226 228 230 232 233 235 237 239 240 242 247 251 257 262 267 270 275 278 282
232 225 214 209 211 215 220 223 226 228 225 223 222 222 224 227 231 232 229 228 225 224 225 225 230 233 234 237 239 241 242 244 244 247 251 256 260 265 270 274 277 284 285
230 233 226 222 221 221 227 226 224 229 232 232 230 230 229 228 231 231 231 229 228 229 231 234 235 238 239 239 240 243 246 249 251 252 254 258 262 266 270 274 278 290 287
226 235 233 232 235 235 235 236 236 237 237 237 235 236 236 233 238 241 244 243 238 235 235 238 240 243 248 252 252 252 252 254 257 259 260 262 264 266 269 271 277 285 285
225 228 235 236 239 244 245 246 245 244 243 243 245 242 244 243 243 245 245 245 243 240 239 241 245 247 250 253 254 256 257 260 263 267 269 268 269 270 268 272 274 282 280
222 226 231 235 237 240 241 241 244 247 245 247 248 247 247 248 243 245 242 239 240 243 248 253 254 254 253 256 259 261 263 264 266 271 273 272 271 273 271 271 271 275 280
224 226 228 234 236 239 240 237 238 240 242 245 244 248 249 250 252 248 248 247 247 250 253 257 260 258 262 262 263 262 262 264 265 270 274 272 273 276 276 275 278 278 277
Height
3057 3057 3057 3056 3055 3054 3053 3052 3052 3052 3052 3053 3054 3055 3056 3057 3057 3058 3058 3058 3059 3061 3062 3063 3065 3067 3069 3072 3074 3077 3080 3082 3082 3084 3088 3093 3098 3106 3111 3116 3123 3129 3135
3056 3056 3055 3055 3054 3052 3052 3052 3052 3052 3053 3055 3056 3056 3057 3058 3058 3059 3059 3059 3061 3063 3065 3066 3068 3069 3071 3073 3074 3076 3080 3082 3084 3086 3088 3097 3103 3107 3114 3120 3126 3132 3137
3055 3055 3054 3054 3053 3052 3052 3052 3052 3053 3055 3055 3057 3058 3058 3059 3059 3060 3061 3062 3064 3065 3067 3068 3070 3072 3073 3072 3073 3076 3080 3084 3087 3090 3094 3100 3106 3111 3118 3123 3129 3135 3139
3054 3054 3054 3054 3053 3052 3052 3053 3053 3054 3056 3057 3058 3059 3059 3060 3061 3062 3063 3064 3066 3068 3070 3072 3073 3073 3073 3073 3074 3079 3082 3086 3090 3093 3098 3103 3109 3114 3120 3126 3131 3136 3142
3053 3054 3054 3054 3053 3053 3053 3054 3054 3055 3056 3058 3059 3060 3061 3062 3063 3065 3066 3067 3069 3071 3073 3074 3075 3076 3076 3077 3080 3082 3084 3087 3091 3095 3101 3106 3111 3117 3123 3129 3134 3139 3142
3053 3053 3054 3054 3054 3054 3055 3056 3056 3057 3058 3059 3060 3062 3063 3064 3065 3066 3068 3070 3071 3073 3074 3076 3077 3079 3079 3081 3083 3084 3087 3089 3093 3098 3103 3109 3115 3121 3126 3132 3137 3142 3146
3053 3054 3054 3054 3055 3056 3056 3055 3056 3058 3059 3060 3060 3062 3064 3066 3067 3069 3070 3072 3073 3075 3077 3078 3079 3081 3082 3083 3085 3087 3090 3093 3097 3101 3106 3113 3118 3124 3129 3135 3140 3143 3147
3053 3054 3055 3055 3056 3057 3058 3058 3058 3059 3060 3060 3061 3062 3064 3066 3068 3070 3072 3074 3076 3078 3079 3080 3082 3084 3085 3086 3088 3089 3092 3095 3100 3104 3111 3117 3121 3127 3132 3138 3142 3146 3149
3054 3055 3056 3057 3058 3059 3059 3061 3061 3061 3061 3059 3059 3061 3064 3066 3068 3070 3072 3075 3078 3080 3082 3083 3085 3087 3088 3090 3091 3094 3097 3099 3104 3108 3114 3120 3125 3132 3137 3141 3144 3147 3149
3055 3057 3057 3059 3060 3060 3061 3062 3063 3064 3063 3061 3062 3062 3061 3066 3069 3070 3072 3075 3078 3081 3083 3086 3087 3089 3090 3093 3096 3099 3102 3105 3108 3113 3119 3124 3130 3134 3139 3141 3145 3147 3149
3055 3057 3058 3060 3061 3062 3063 3064 3065 3066 3067 3066 3066 3067 3067 3068 3070 3071 3072 3074 3078 3082 3086 3088 3090 3092 3093 3098 3101 3105 3109 3112 3116 3121 3125 3129 3133 3137 3140 3143 3145 3148 3148
3055 3057 3059 3061 3062 3063 3064 3066 3067 3068 3069 3070 3071 3071 3072 3071 3071 3072 3075 3077 3081 3085 3089 3092 3094 3098 3101 3104 3107 3110 3114 3118 3122 3125 3129 3132 3136 3139 3141 3143 3145 3146 3147
3055 3057 3059 3061 3063 3064 3066 3067 3068 3070 3071 3072 3074 3075 3075 3076 3076 3077 3078 3082 3086 3088 3091 3095 3098 3101 3105 3108 3111 3114 3117 3121 3125 3129 3132 3135 3137 3140 3142 3143 3144 3145 3145
3055 3057 3058 3060 3062 3064 3066 3068 3069 3071 3073 3074 3076 3077 3078 3080 3081 3083 3085 3086 3090 3092 3095 3098 3102 3105 3108 3111 3114 3116 3120 3123 3127 3130 3132 3135 3138 3139 3141 3142 3142 3142 3141
3054 3056 3059 3060 3062 3064 3066 3069 3070 3072 3073 3075 3077 3079 3081 3082 3085 3087 3089 3092 3094 3096 3099 3101 3104 3107 3110 3113 3115 3118 3121 3124 3127 3130 3132 3135 3136 3138 3138 3139 3138 3138 3137
3052 3055 3058 3060 3062 3063 3065 3067 3070 3072 3074 3076 3077 3079 3081 3083 3086 3088 3091 3094 3096 3099 3102 3104 3106 3109 3111 3114 3116 3119 3122 3124 3127 3129 3131 3133 3134 3134 3134 3135 3134 3133 3132
3050 3053 3056 3059 3061 3063 3065 3067 3069 3071 3073 3076 3078 3080 3082 3084 3086 3088 3091 3094 3096 3098 3101 3103 3106 3108 3111 3113 3116 3118 3120 3123 3125 3126 3128 3129 3129 3130 3130 3130 3129 3128 3127
3049 3051 3054 3057 3059 3062 3064 3066 3068 3070 3072 3075 3078 3080 3082 3085 3086 3088 3090 3093 3095 3098 3101 3103 3105 3107 3109 3111 3113 3115 3117 3118 3120 3122 3123 3124 3125 3125 3125 3125 3124 3123 3122
3046 3048 3050 3053 3056 3059 3062 3064 3066 3068 3070 3072 3075 3077 3080 3083 3085 3087 3089 3092 3094 3096 3099 3101 3103 3104 3106 3108 3110 3112 3113 3115 3116 3118 3119 3120 3120 3120 3120 3119 3118 3117 3115
3043 3046 3048 3050 3053 3055 3057 3060 3063 3066 3067 3069 3071 3074 3076 3079 3081 3084 3087 3089 3092 3094 3096 3097 3099 3101 3103 3104 3105 3106 3107 3109 3111 3112 3113 3114 3114 3114 3113 3112 3111 3109 3108
3039 3042 3045 3047 3049 3052 3055 3057 3060 3063 3065 3067 3069 3070 3072 3075 3078 3080 3083 3085 3087 3089 3091 3092 3093 3095 3097 3098 3100 3100 3101 3102 3103 3105 3106 3106 3107 3107 3107 3105 3104 3102 3101
3034 3037 3041 3044 3046 3049 3052 3054 3056 3058 3061 3064 3066 3067 3069 3072 3073 3075 3077 3079 3082 3084 3086 3087 3088 3089 3090 3091 3092 3093 3094 3095 3096 3097 3099 3100 3100 3099 3099 3097 3095 3093 3090
3028 3032 3036 3039 3042 3045 3047 3049 3052 3054 3056 3058 3061 3063 3064 3066 3068 3070 3072 3075 3076 3078 3079 3080 3081 3082 3084 3085 3086 3087 3087 3088 3090 3091 3091 3090 3088 3089 3089 3087 3085 3082 3081
3021 3025 3028 3032 3035 3038 3041 3044 3046 3048 3050 3052 3054 3056 3057 3061 3062 3063 3066 3067 3069 3071 3072 3073 3074 3075 3076 3076 3078 3079 3079 3080 3081 3081 3082 3082 3081 3080 3080 3077 3076 3074 3070
3012 3016 3021 3025 3027 3030 3032 3035 3038 3041 3043 3045 3047 3049 3051 3052 3055 3057 3058 3060 3061 3062 3064 3065 3066 3067 3068 3069 3069 3071 3072 3072 3074 3073 3073 3073 3071 3068 3068 3065 3065 3061 3060
3002 3006 3012 3016 3018 3021 3024 3026 3029 3032 3033 3035 3037 3040 3042 3044 3046 3048 3051 3052 3053 3054 3056 3056 3058 3060 3060 3061 3062 3063 3063 3064 3065 3064 3062 3061 3061 3060 3058 3056 3053 3052 3050